Regional Weather Roundup
Issued by NWS

Home | Current Version | Previous Version | Text Only | Print | Product List | Glossary On
Versions: 1 2 3 4 5 6 7 8 9 10 11 12 13 14 15 16 17 18 19 20 21 22 23 24 25 26 27 28 29 30 31 32 33 34 35 36 37 38 39 40 41 42 43 44 45 46 47 48 49 50
000
ASUS44 KJAN 031510
RWRMS

MISSISSIPPI HOURLY WEATHER ROUNDUP
NATIONAL WEATHER SERVICE JACKSON MS
1000 AM CDT THU SEP 03 2015

NOTE: "FAIR: INDICATES FEW OR NO CLOUDS BELOW 12,000 FEET WITH NO
SIGNIFICANT WEATHER AND/OR OBSTRUCTIONS TO VISIBILITY.

MSZ001>002-007>008-010>013-018>021-025>028-034>036-031600-
NORTHWEST MISSISSIPPI

CITY           SKY/WX    TMP DP  RH WIND       PRES   REMARKS
CLARKSDALE     FAIR      82  73  74 CALM      30.03F
CLEVELAND      FAIR      83  76  79 CALM      30.01S HX  92
GREENWOOD      SUNNY     83  72  69 CALM      30.01F
GREENVILLE     SUNNY     86  72  62 VRB3      30.01S HX  92
OLIVE BRANCH   MOSUNNY   82  72  69 CALM      30.04F
OXFORD         FAIR      81  72  74 CALM      30.05F
TUNICA           N/A    N/A N/A N/A MISG        N/A
$$

MSZ003>006-009-014>017-022>024-029>033-037>039-031600-
NORTHEAST MISSISSIPPI

CITY           SKY/WX    TMP DP  RH WIND       PRES   REMARKS
COLUMBUS AFB   SUNNY     83  74  73 VRB1      30.01F HX  90
CORINTH        FAIR      82  72  69 N3        30.04S
GOLDN TRIANGLE SUNNY     84  72  65 NW5       30.02F
STARKVILLE     FAIR      82  72  69 N5        30.03S
TUPELO         SUNNY     83  73  72 VRB3      30.03S
$$

MSZ040-058-031600-
CENTRAL MISSISSIPPI

CITY           SKY/WX    TMP DP  RH WIND       PRES   REMARKS
JACKSON INTL   CLOUDY    85  70  60 VRB3      30.02S
JACKSON HAWKNS PTSUNNY   81  72  74 CALM      30.03S
MERIDIAN KEY   SUNNY     83  70  64 NW5       30.02S
MERIDIAN NAS   MOSUNNY   85  73  67 VRB3      30.02F HX  91
VICKSBURG      SUNNY     84  72  67 CALM      30.02R
$$

MSZ059>079-031600-
SOUTH MISSISSIPPI

CITY           SKY/WX    TMP DP  RH WIND       PRES   REMARKS
BROOKHAVEN     FAIR      84  70  61 NE5       30.05S
HATTIESBURG    PTSUNNY   86  71  60 N6        30.02S HX  91
MCCOMB         SUNNY     83  69  62 VRB3      30.03R
NATCHEZ        SUNNY     81  70  69 CALM      30.04R
PINE BELT      PTSUNNY   84 N/A N/A NE5       30.04R
$$

MSZ080>082-031600-
COASTAL MISSISSIPPI

CITY           SKY/WX    TMP DP  RH WIND       PRES   REMARKS
BAY ST LOUIS   MOSUNNY   84  72  65 CALM      30.02
BILOXI         MOSUNNY   83  74  76 E3        30.01R
PASCAGOULA     PTSUNNY   83  75  77 CALM      30.02R HX  90
GULFPORT       MOSUNNY   86  73  65 CALM      30.01R HX  93
$$


USA.gov is the U.S. government's official web portal to all federal, state and local government web resources and services.